User: anonymous   Login
Location: Unspecified
(0.0000°N, 0.0000°E)
Time: 13:58:22
(UTC+02:00)
Language:

Cosmos 773 Rocket - Orbit

View from above orbital plane
View from above orbital plane
View from above satellite
View from above satellite

Ground track
Ground track

The orbit data is extracted from the following two-line orbital elements,

1 08344U 75094B   16270.45034503 -.00000016  00000-0  34492-5 0  9999
2 08344  74.0556 251.5909 0022730 221.6609 138.2815 14.39065614147749
Epoch (UTC): 26 September 2016 10:48:29
Eccentricity: 0.0022730
inclination: 74.0556°
perigee height: 745 km
apogee height: 778 km
right ascension of ascending node: 251.5909°
argument of perigee: 221.6609°
revolutions per day: 14.39065614
mean anomaly at epoch: 138.2815°
orbit number at epoch: 14774

The dashed part of the orbit path shows where the satellite is in the earth's shadow,  

DLR